This is the latest recevied weather packets stored in our database for station/object KFVE. If no packets are shown the sender has not sent any weather packets the latest 1 day(s).
| Time | Temp. | Humidity | Pressure | Rain* | Wind** | Luminosity | Snow |
|---|---|---|---|---|---|---|---|
| 1778043812 | 11.67° C | 93% | 1004.7 hPa | - | 1.79 m/s, 270° | - | - |
| 1778043208 | 12.78° C | 93% | 1004.1 hPa | - | 4.47 m/s, 260° | - | - |
| 1778042611 | 12.78° C | 93% | 1004.1 hPa | - | 4.47 m/s, 260° | - | - |
| 1778042010 | 12.78° C | 93% | 1004.1 hPa | - | 4.47 m/s, 260° | - | - |
| 1778041410 | 12.78° C | 93% | 1004.1 hPa | - | 4.47 m/s, 260° | - | - |
| 1778040812 | 12.78° C | 93% | 1004.1 hPa | - | 4.47 m/s, 260° | - | - |
| 1778040330 | 12.78° C | 93% | 1004.1 hPa | - | 4.47 m/s, 260° | - | - |
| 1778039608 | 12.78° C | 93% | 1003.4 hPa | - | 1.34 m/s, 200° | - | - |
| 1778039015 | 12.78° C | 93% | 1003.4 hPa | - | 1.34 m/s, 200° | - | - |
| 1778038414 | 12.78° C | 93% | 1003.4 hPa | - | 1.34 m/s, 200° | - | - |
| 1778037813 | 12.78° C | 93% | 1003.4 hPa | - | 1.34 m/s, 200° | - | - |
| 1778037209 | 12.78° C | 93% | 1003.4 hPa | - | 0 m/s | - | - |
| 1778036607 | 12.78° C | 93% | 1003.4 hPa | - | 0 m/s | - | - |
| 1778036009 | 12.78° C | 93% | 1003.4 hPa | - | 2.24 m/s, 220° | - | - |
| 1778035408 | 12.78° C | 93% | 1003.4 hPa | - | 2.24 m/s, 220° | - | - |
| 1778034807 | 12.78° C | 93% | 1003.4 hPa | - | 2.24 m/s, 220° | - | - |
| 1778034210 | 12.78° C | 93% | 1003.4 hPa | - | 2.24 m/s, 220° | - | - |
| 1778033610 | 12.78° C | 93% | 1003.4 hPa | - | 2.24 m/s, 220° | - | - |
| 1778033010 | 12.78° C | 93% | 1003.4 hPa | - | 2.24 m/s, 220° | - | - |
| 1778032410 | 12.78° C | 93% | 1002.7 hPa | - | 2.68 m/s, 190° | - | - |
| 1778031809 | 12.78° C | 93% | 1002.7 hPa | - | 2.68 m/s, 190° | - | - |
| 1778031210 | 12.78° C | 93% | 1003 hPa | - | 1.79 m/s, 230° | - | - |
| 1778030608 | 12.78° C | 93% | 1003 hPa | - | 1.79 m/s, 230° | - | - |
| 1778030011 | 12.78° C | 93% | 1002.4 hPa | - | 2.24 m/s, 200° | - | - |
| 1778029408 | 12.78° C | 93% | 1002.4 hPa | - | 2.24 m/s, 200° | - | - |
* Rain since midnight (hover to see other rain measurements)
** Current wind speed in m/s (hover to see current wind gust speed)